Chamberlain, SD

10:27 PM CDT on April 21, 2018 (GMT -0500)
Chamberlain

Weather History for K9V9 - September, 2013

Change the Weather History Date:

Sunday, September 8, 2013

  Actual Average Record
Temperature  
Mean Temperature 81 °F -  
Max Temperature 93 °F 80 °F 97 °F (2002)
Min Temperature 71 °F 53 °F 46 °F (2008)
Cooling Degree Days 16    
Growing Degree Days 31 (Base 50)    
Moisture  
Dew Point 69 °F    
Average Humidity 70    
Maximum Humidity 87    
Minimum Humidity 44    
Precipitation  
Precipitation 0.01 in - - ()
Sea Level Pressure  
Sea Level Pressure 29.82 in    
Wind  
Wind Speed 12 mph (SSE)    
Max Wind Speed 18 mph    
Max Gust Speed 26 mph    
Averages and records for this station are not official NWS values.
T = Trace of Precipitation, MM = Missing Value Source: NWS Daily Summary

Daily Weather History Graph

Daily Weather History Graph

Search for Another Location

Airport or City:

Astronomy

Sep. 08, 2013 Rise Set
Actual Time 7:08 AM CDT 7:59 PM CDT
Civil Twilight 6:39 AM CDT 8:28 PM CDT
Nautical Twilight 6:05 AM CDT 9:03 PM CDT
Astronomical Twilight 5:28 AM CDT 9:39 PM CDT
Moon 10:36 AM CDT (9/8) 9:27 PM CDT (9/8)
Length of Visible Light 13h 49m
Length of Day
12h 50m
Waxing Crescent, 11% of the Moon is Illuminated
Sep 8
Waxing Crescent
Sep 12
First Quarter
Sep 19
Full
Sep 26
Last Quarter
Oct 4
New

Hourly Weather History & Observations

Time (CDT) Temp. Heat Index Dew Point Humidity Pressure Visibility Wind Dir Wind Speed Gust Speed Precip Events Conditions
12:52 AM 75.9 °F - 66.0 °F 71% 29.91 in - SSE 12.7 mph - N/A   Unknown
1:52 AM 73.9 °F - 66.0 °F 76% 29.91 in - SSE 10.4 mph - N/A   Unknown
2:52 AM 73.0 °F - 66.9 °F 81% 29.91 in - SSE 8.1 mph - 0.01 in   Unknown
3:52 AM 75.0 °F - 66.9 °F 76% 29.96 in - East 5.8 mph - N/A   Unknown
4:52 AM 73.9 °F - 66.9 °F 79% 29.92 in - ESE 9.2 mph - N/A   Unknown
5:52 AM 73.9 °F - 68.0 °F 82% 29.86 in - SSE 17.3 mph - N/A   Unknown
6:52 AM 73.0 °F - 69.1 °F 87% 29.89 in - SSE 6.9 mph - N/A   Unknown
7:52 AM 73.0 °F - 69.1 °F 87% 29.91 in - East 6.9 mph - N/A   Unknown
8:52 AM 71.1 °F - 66.0 °F 84% 29.92 in - East 13.8 mph - N/A   Unknown
9:52 AM 73.9 °F - 66.9 °F 79% 29.91 in - ESE 10.4 mph - N/A   Unknown
10:52 AM 77.0 °F - 68.0 °F 74% 29.91 in - East 10.4 mph - N/A   Unknown
11:52 AM 81.0 °F 84.1 °F 69.1 °F 67% 29.88 in - SSE 15.0 mph - N/A   Unknown
12:52 PM 82.0 °F 85.9 °F 70.0 °F 67% 29.86 in - SSE 15.0 mph - N/A   Unknown
1:52 PM 88.0 °F 92.9 °F 70.0 °F 55% 29.82 in - SSE 18.4 mph 25.3 mph N/A   Unknown
2:52 PM 90.0 °F 94.5 °F 69.1 °F 50% 29.78 in - South 17.3 mph 26.5 mph N/A   Unknown
3:52 PM 91.9 °F 95.4 °F 66.9 °F 44% 29.75 in - South 17.3 mph 26.5 mph N/A   Unknown
4:52 PM 91.9 °F 95.9 °F 68.0 °F 45% 29.72 in - SSW 18.4 mph 24.2 mph N/A   Unknown
5:52 PM 91.0 °F 96.6 °F 70.0 °F 50% 29.72 in - SSW 16.1 mph - N/A   Unknown
6:52 PM 89.1 °F 95.0 °F 71.1 °F 55% 29.72 in - South 8.1 mph - N/A   Unknown
7:52 PM 84.0 °F 89.0 °F 71.1 °F 65% 29.72 in - SE 9.2 mph - N/A   Unknown
8:52 PM 82.0 °F 86.3 °F 71.1 °F 69% 29.71 in - SSE 12.7 mph - N/A   Unknown
9:52 PM 80.1 °F 83.6 °F 71.1 °F 74% 29.70 in - SSE 17.3 mph 21.9 mph N/A   Unknown
10:52 PM 78.1 °F - 71.1 °F 79% 29.70 in - SSE 17.3 mph 23.0 mph N/A   Unknown
11:52 PM 75.9 °F - 71.1 °F 85% 29.68 in - SSE 17.3 mph 24.2 mph N/A   Unknown